Regional Weather Roundup
Issued by NWS

Home | Current Version | Previous Version | Graphics & Text | Print | Product List | Glossary On
Versions: 1 2 3 4 5 6 7 8 9 10 11 12 13 14 15 16 17 18 19 20 21 22 23 24 25 26 27 28 29 30 31 32 33 34 35 36 37 38 39 40 41 42 43 44 45 46 47 48 49 50
359
ASUS45 KSLC 090210
RWRUT

UTAH REGIONAL WEATHER ROUNDUP
NATIONAL WEATHER SERVICE SALT LAKE CITY UT
700 PM MST MON FEB 08 2016

UTZ001>011-023>025-090300-

NORTHERN UTAH

CITY           SKY/WX    TMP DP  RH WIND       PRES   REMARKS
BRIGHAM CITY   MOCLDY    26  22  85 CALM      30.64S
HILL AFB       MOCLDY    33  22  66 N3        30.61S
LOGAN          MOCLDY    18  15  88 CALM      30.65R FOG
OGDEN          MOCLDY    30  25  81 NW3       30.62R
PROVO AIRPORT  MOCLDY    27  19  74 CALM      30.63S
SALT LAKE CITY MOCLDY    34  27  75 W5        30.63R WCI  30
VERNAL         CLOUDY    16  12  84 SE3       30.54R
WENDOVER       CLEAR     34  27  75 CALM      30.63R
HEBER CITY     PTCLDY    21  16  79 E3        30.59R
WEST JORDAN    CLEAR     32  28  86 CALM      30.63R

$$

UTZ012>022-026-027-090300-

SOUTHERN/CENTRAL UTAH

CITY           SKY/WX    TMP DP  RH WIND       PRES   REMARKS
BLANDING       CLEAR     36  27  70 N5        30.52R WCI  32
BRYCE CANYON   CLEAR     30  19  63 N13       30.55S WCI  20
CEDAR CITY     CLEAR     29  23  78 S5        30.55S WCI  24
DELTA          PTCLDY    21  19  92 CALM      30.63R
HANKSVILLE     CLEAR     28  25  86 E3        30.54R
MILFORD        PTCLDY    23  19  85 NE6       30.59S WCI  16
MOAB/CYNLANDS  PTCLDY    23  18  81 SW3       30.51S
PRICE          PTCLDY    26  18  71 NE3       30.49S
ST GEORGE      PTCLDY    54  25  32 S5        30.43R
KANAB          CLEAR     41  28  60 CALM      30.49R

$$

REGIONAL REPORTS     COLORADO/ARIZONA

CITY           SKY/WX    TMP DP  RH WIND       PRES   REMARKS
CRAIG, CO      CLOUDY     9   5  84 CALM      30.53S
GRAND JUNCTION CLOUDY    25  21  85 E3        30.51R
RIFLE          CLOUDY    28  17  63 S3        30.51R
MONTROSE       CLOUDY    28  21  75 E6        30.51F WCI  22
CORTEZ         CLEAR     40  25  55 E7        30.42R
PAGE, AZ       CLEAR     43  24  47 CALM      30.47R
GRAND CANYON   CLEAR     45  18  34 VRB6      30.47F
KINGMAN        CLEAR     58  22  24 E12       30.33R
FLAGSTAFF      CLEAR     44  17  33 E10       30.45S

$$

REGIONAL REPORTS    NEVADA/IDAHO/WYOMING

CITY           SKY/WX    TMP DP  RH WIND       PRES   REMARKS
LAS VEGAS, NV  CLEAR     68  27  21 CALM      30.29S
ELY            CLEAR     23  18  81 S12       30.59S WCI  12
ELKO           CLEAR     25  18  74 E7        30.61R WCI  17
POCATELLO, ID  CLOUDY    25  23  92 NE5       30.65F WCI  19
BURLEY         MOCLDY    29  27  92 NE10      30.61S WCI  20
EVANSTON, WY   CLOUDY    33  18  53 SW3       30.58S
ROCK SPRINGS   CLOUDY    31  24  75 SW20      30.47F WCI  19

$$




USA.gov is the U.S. government's official web portal to all federal, state and local government web resources and services.